Location: Diebersbach
(48.5163°N, 8.0558°E)
Time: 19:37:24
(UTC+00:00)

Cosmos 1825 - Pass Details

Date: 01 November 2021
Orbit: 501 x 504 km, 82.5° (Epoch: 01 December)

Event Time Altitude Azimuth Distance (km) Brightness Sun altitude
Rises 18:33:45 0° 336° (NNW) 2,611 6.2 -24.5°
Reaches altitude 10° 18:36:18 10° 319° (NW) 1,721 5.4 -25.0°
Maximum altitude 18:39:01 19° 273° (W) 1,245 4.9 -25.4°
Drops below altitude 10° 18:41:43 10° 226° (SW) 1,711 5.3 -25.8°
Sets 18:44:16 0° 208° (SSW) 2,591 6.0 -26.3°
